Location: ???? ????
(41.4149°N, 22.8816°E)
Time: 11:30:30
(UTC+00:00)

Aureole 1 Rocket - Pass Details

Date: 14 July 2020
Orbit: 377 x 1380 km, 73.9° (Epoch: 10 August)

Event Time Altitude Azimuth Distance (km) Brightness Sun altitude
Exits shadow 00:43:25 47° 223° (SW) 904 3.4 -20.2°
Maximum altitude 00:44:43 71° 292° (WNW) 760 3.4 -20.1°
Drops below altitude 10° 00:50:30 10° 17° (NNE) 2,575 7.3 -19.5°
Sets 00:53:24 0° 19° (NNE) 3,697 8.5 -19.2°
